DW4236 Weather Reports


time (UTC)temp
C
wind
direction
speed
KPH
gust
KPH
rain 1hr
cm
rain 24hr
cm
rain mn
cm
humidity
%
barometer
mb
20260507064606 11 299 0.0 1.6 0.05 0.25 0.05 89 1010.9
20260507063604 11 299 0.0 1.6 0.05 0.25 0.05 89 1010.8
20260507063105 11 299 3.2 4.8 0.05 0.25 0.05 88 1011.0
20260507062605 11 297 3.2 4.8 0.05 0.25 0.05 88 1010.8
20260507062104 11 314 0.0 1.6 0.05 0.25 0.05 87 1010.5
20260507061605 11 314 0.0 0.0 0.03 0.23 0.03 87 1010.7
20260507061105 11 314 0.0 3.2 0.03 0.23 0.03 87 1010.6
20260507060605 11 314 1.6 3.2 0.03 0.23 0.03 86 1010.6
20260507060104 11 314 0.0 3.2 0.03 0.23 0.03 86 1010.5
20260507055604 11 314 1.6 3.2 0.03 0.23 0.03 85 1010.4
20260507055106 11 314 1.6 3.2 0.03 0.23 0.03 84 1010.4
20260507054606 11 344 0.0 0.0 0.00 0.20 0.00 84 1010.0
20260507054106 11 336 0.0 0.0 0.00 0.20 0.00 84 1010.1
20260507053105 11 336 0.0 0.0 0.00 0.20 0.00 83 1010.0
20260507051104 12 321 1.6 3.2 0.00 0.20 0.00 82 1010.1
20260507050105 12 336 1.6 4.8 0.00 0.20 0.00 82 1010.4
20260507045606 12 339 1.6 4.8 0.00 0.20 0.00 82 1010.6
20260507045104 12 339 1.6 4.8 0.00 0.20 0.00 82 1010.8
20260507043604 12 349 0.0 0.0 0.00 0.20 0.00 82 1010.8
20260507043106 12 349 0.0 0.0 0.00 0.20 0.00 81 1010.8
20260507042605 12 349 1.6 4.8 0.00 0.20 0.00 81 1010.8
20260507042104 12 347 0.0 0.0 0.00 0.20 0.00 81 1010.5
20260507041605 12 347 0.0 1.6 0.00 0.20 0.00 81 1010.4
20260507041106 12 347 0.0 1.6 0.00 0.20 0.00 81 1010.6
20260507040605 12 347 1.6 4.8 0.00 0.20 0.00 81 1010.8
20260507040106 12 348 0.0 4.8 0.00 0.20 0.00 81 1010.8
20260507035605 12 336 1.6 4.8 0.00 0.20 0.20 81 1010.8
20260507035105 12 336 3.2 9.7 0.00 0.20 0.20 81 1010.6
20260507034606 12 355 0.0 1.6 0.00 0.20 0.20 81 1010.7
20260507034106 12 353 0.0 8.0 0.00 0.20 0.20 81 1010.5
20260507033105 12 18 1.6 4.8 0.00 0.20 0.20 81 1010.4
20260507032605 12 358 1.6 4.8 0.00 0.20 0.20 81 1010.3
20260507032105 12 5 3.2 4.8 0.00 0.20 0.20 81 1010.2
20260507031605 12 35 1.6 4.8 0.00 0.20 0.20 81 1010.4
20260507031106 12 349 1.6 8.0 0.00 0.20 0.20 81 1010.4
20260507030607 12 14 0.0 0.0 0.00 0.20 0.20 81 1010.6
20260507030105 12 14 0.0 3.2 0.00 0.20 0.20 81 1010.7
20260507025605 12 14 0.0 4.8 0.00 0.20 0.20 81 1010.8
20260507025104 12 12 1.6 4.8 0.00 0.20 0.20 80 1010.7
20260507024605 13 15 4.8 12.9 0.00 0.20 0.20 81 1010.7
20260507024106 13 71 3.2 14.5 0.00 0.20 0.20 81 1010.7
20260507023605 13 3 6.4 14.5 0.00 0.20 0.20 82 1010.7
20260507022604 13 345 3.2 19.3 0.00 0.20 0.20 84 1010.7
20260507022105 13 294 3.2 19.3 0.00 0.20 0.20 84 1010.6
20260507021605 13 340 9.7 16.1 0.00 0.20 0.20 85 1010.4
20260507021105 14 292 8.0 14.5 0.00 0.20 0.20 85 1010.3
20260507020606 14 305 4.8 12.9 0.00 0.20 0.20 85 1010.2
20260507020105 14 317 4.8 9.7 0.00 0.20 0.20 85 1010.1
20260507015605 14 341 3.2 4.8 0.00 0.20 0.20 85 1010.1
20260507015105 14 309 3.2 8.0 0.00 0.20 0.20 85 1010.1
20260507014605 14 305 4.8 11.3 0.00 0.20 0.20 84 1010.2
20260507014104 14 325 8.0 19.3 0.00 0.20 0.20 83 1010.0
20260507013605 14 318 4.8 12.9 0.00 0.20 0.20 83 1010.0
20260507013105 14 342 4.8 14.5 0.00 0.20 0.20 84 1010.0
20260507012605 15 346 8.0 19.3 0.00 0.20 0.20 86 1010.0
20260507012105 15 329 4.8 11.3 0.00 0.20 0.20 87 1009.9
20260507011606 15 298 9.7 14.5 0.00 0.20 0.20 87 1009.9
20260507010604 15 349 4.8 16.1 0.00 0.20 0.20 87 1009.6
20260507010104 15 329 4.8 14.5 0.00 0.20 0.20 88 1009.6
20260507005604 15 299 4.8 14.5 0.00 0.20 0.20 88 1009.3
20260507005105 16 289 9.7 16.1 0.00 0.20 0.20 88 1009.0
20260507004605 16 294 3.2 11.3 0.00 0.20 0.20 88 1008.9
20260507004105 16 300 8.0 12.9 0.00 0.20 0.20 88 1008.8
20260507003607 16 329 8.0 12.9 0.00 0.20 0.20 89 1008.7
20260507003105 16 3 3.2 8.0 0.00 0.20 0.20 89 1008.5
20260507002606 16 330 3.2 4.8 0.00 0.20 0.20 90 1008.4
20260507002104 16 358 1.6 4.8 0.00 0.20 0.20 89 1008.5
20260507001605 16 350 4.8 9.7 0.00 0.20 0.20 89 1008.4
20260507001105 17 336 4.8 9.7 0.00 0.20 0.20 90 1008.4
20260507000604 17 280 0.0 4.8 0.00 0.20 0.20 90 1007.9
20260507000105 17 280 3.2 4.8 0.00 0.20 0.20 90 1007.8
20260506235605 17 268 0.0 4.8 0.00 0.20 0.20 89 1007.7
20260506235105 17 282 1.6 8.0 0.00 0.20 0.20 89 1007.7
20260506234606 17 247 0.0 3.2 0.00 0.20 0.20 89 1007.7
20260506233605 17 231 3.2 12.9 0.00 0.20 0.20 89 1007.7
20260506233105 17 251 3.2 12.9 0.00 0.20 0.20 89 1007.7
20260506232104 17 290 0.0 3.2 0.00 0.20 0.20 89 1007.6
20260506231604 17 289 0.0 3.2 0.00 0.20 0.20 88 1007.5
20260506231105 17 285 1.6 4.8 0.00 0.20 0.20 89 1007.4
20260506230105 17 284 1.6 4.8 0.00 0.20 0.20 88 1007.4
20260506225605 17 282 1.6 4.8 0.00 0.20 0.20 88 1007.4
20260506224605 17 277 1.6 19.3 0.00 0.20 0.20 88 1007.3
20260506224105 17 289 4.8 12.9 0.00 0.20 0.20 88 1007.3
20260506223605 17 276 4.8 12.9 0.00 0.20 0.20 88 1007.2
20260506223105 17 298 4.8 16.1 0.00 0.20 0.20 89 1007.2
20260506222605 17 274 8.0 20.9 0.00 0.20 0.20 89 1007.2
20260506221605 17 262 3.2 11.3 0.00 0.20 0.20 89 1007.1
20260506221105 17 272 4.8 16.1 0.00 0.20 0.20 89 1007.1
20260506220604 17 298 8.0 16.1 0.00 0.20 0.20 89 1007.2
20260506220104 17 290 4.8 14.5 0.00 0.20 0.20 89 1007.1
20260506215105 17 301 12.9 22.5 0.00 0.20 0.20 89 1007.2
20260506214604 17 278 4.8 12.9 0.00 0.20 0.20 90 1007.1
20260506214105 17 283 4.8 14.5 0.00 0.20 0.20 90 1007.1
20260506213605 17 263 8.0 12.9 0.00 0.20 0.20 91 1007.1
20260506213105 17 253 1.6 4.8 0.00 0.20 0.20 91 1007.1
20260506212606 17 278 0.0 4.8 0.00 0.20 0.20 91 1007.0
20260506212105 17 272 1.6 4.8 0.00 0.20 0.20 92 1006.9
20260506211604 17 255 1.6 4.8 0.00 0.20 0.20 92 1006.6
20260506211105 17 235 1.6 4.8 0.00 0.20 0.20 92 1006.8
20260506210606 17 194 1.6 3.2 0.00 0.20 0.20 92 1006.8
20260506210105 17 199 0.0 3.2 0.00 0.20 0.20 92 1006.8
20260506205604 17 287 0.0 9.7 0.00 0.20 0.20 92 1006.8
20260506205105 17 278 3.2 4.8 0.00 0.20 0.20 92 1006.8
20260506204606 17 240 1.6 4.8 0.03 0.20 0.20 91 1006.8
20260506204106 17 257 1.6 4.8 0.03 0.20 0.20 91 1006.7
20260506203604 17 256 3.2 8.0 0.03 0.20 0.20 91 1006.8
20260506203105 17 226 1.6 4.8 0.03 0.20 0.20 91 1006.6
20260506202605 17 252 1.6 4.8 0.03 0.20 0.20 91 1006.6
20260506202104 17 218 3.2 8.0 0.03 0.20 0.20 91 1006.7
20260506201604 17 232 1.6 8.0 0.03 0.20 0.20 91 1006.8
20260506201105 17 246 3.2 9.7 0.03 0.20 0.20 91 1006.9
20260506200604 17 250 4.8 19.3 0.03 0.20 0.20 91 1007.0
20260506200104 17 269 6.4 19.3 0.03 0.20 0.20 91 1007.0
20260506195605 17 228 3.2 9.7 0.03 0.20 0.20 91 1007.1
20260506195104 17 255 4.8 16.1 0.03 0.20 0.20 91 1007.1
20260506194604 17 269 3.2 12.9 0.00 0.18 0.18 92 1007.2
20260506194105 17 262 4.8 11.3 0.00 0.18 0.18 92 1007.3
20260506193604 17 235 3.2 14.5 0.00 0.18 0.18 92 1007.3
20260506192604 17 262 4.8 12.9 0.00 0.18 0.18 92 1007.4
20260506192105 17 217 3.2 8.0 0.00 0.18 0.18 92 1007.5
20260506191604 17 222 3.2 12.9 0.00 0.18 0.18 92 1007.5
20260506191105 17 220 3.2 8.0 0.00 0.18 0.18 92 1007.7
20260506190605 17 275 3.2 8.0 0.00 0.18 0.18 92 1007.7
20260506185605 17 264 4.8 11.3 0.03 0.18 0.18 91 1007.7
20260506185105 17 245 6.4 19.3 0.03 0.18 0.18 91 1007.8
20260506184604 17 249 3.2 8.0 0.05 0.18 0.18 91 1007.8
20260506184105 17 265 3.2 8.0 0.05 0.18 0.18 91 1007.9
20260506183605 17 270 4.8 12.9 0.05 0.18 0.18 91 1007.8
20260506182105 17 281 6.4 16.1 0.05 0.18 0.18 90 1007.9
20260506181605 17 272 4.8 19.3 0.05 0.18 0.18 90 1007.8
20260506180105 17 248 6.4 12.9 0.05 0.18 0.18 90 1008.0
20260506175604 17 280 3.2 14.5 0.05 0.15 0.15 90 1008.0
20260506175105 17 261 6.4 16.1 0.05 0.15 0.15 90 1008.1
20260506174606 17 305 3.2 12.9 0.03 0.13 0.13 90 1008.0
20260506174104 17 252 6.4 19.3 0.03 0.13 0.13 90 1008.0
20260506173604 17 279 6.4 19.3 0.03 0.13 0.13 90 1008.0
20260506173104 17 291 3.2 11.3 0.05 0.13 0.13 90 1008.2
20260506172605 17 269 3.2 4.8 0.05 0.13 0.13 90 1008.1
20260506171605 17 285 1.6 8.0 0.08 0.13 0.13 89 1007.9
20260506171104 17 263 3.2 9.7 0.10 0.13 0.13 89 1008.1
20260506170605 17 219 3.2 8.0 0.10 0.13 0.13 89 1008.0
20260506170104 17 235 1.6 9.7 0.10 0.13 0.13 89 1008.0
20260506165105 17 190 0.0 3.2 0.10 0.10 0.10 89 1008.0
20260506164604 17 190 3.2 4.8 0.10 0.10 0.10 88 1008.1
20260506164112 17 220 1.6 4.8 0.10 0.10 0.10 88 1008.2
20260506163604 17 221 0.0 0.0 0.10 0.10 0.10 87 1008.5
20260506163104 17 221 0.0 0.0 0.08 0.08 0.08 87 1008.8
20260506162105 17 221 0.0 1.6 0.05 0.05 0.05 86 1009.1
20260506161108 17 221 0.0 0.0 0.03 0.03 0.03 85 1009.1
20260506160105 18 220 0.0 3.2 0.03 0.03 0.03 83 1009.1
20260506155605 18 216 1.6 9.7 0.03 0.03 0.03 82 1009.1
20260506155104 18 229 4.8 16.1 0.00 0.00 0.00 81 1009.1
20260506154605 18 256 1.6 9.7 0.00 0.00 0.00 81 1009.2
20260506154105 18 249 3.2 8.0 0.00 0.00 0.00 80 1009.2
20260506153604 18 225 3.2 8.0 0.00 0.00 0.00 80 1009.1
20260506153104 18 268 1.6 16.1 0.00 0.00 0.00 79 1009.1
20260506152604 19 222 3.2 14.5 0.00 0.00 0.00 78 1009.2
20260506152104 19 275 3.2 9.7 0.00 0.00 0.00 76 1009.3
20260506151604 19 251 4.8 9.7 0.00 0.00 0.00 75 1009.4
20260506151105 19 265 4.8 12.9 0.00 0.00 0.00 75 1009.4
20260506150605 19 281 4.8 14.5 0.00 0.00 0.00 75 1009.4
20260506150105 20 263 3.2 14.5 0.00 0.00 0.00 75 1009.4
20260506145604 20 246 6.4 14.5 0.00 0.00 0.00 74 1009.3
20260506145105 20 197 1.6 4.8 0.00 0.00 0.00 74 1009.3
20260506144604 20 241 3.2 11.3 0.00 0.00 0.00 74 1009.4
20260506144105 20 235 3.2 11.3 0.00 0.00 0.00 74 1009.3
20260506143605 20 246 1.6 4.8 0.00 0.00 0.00 74 1009.3
20260506143106 20 279 3.2 14.5 0.00 0.00 0.00 74 1009.3
20260506142106 20 279 1.6 8.0 0.00 0.00 0.00 74 1009.4
20260506141605 20 214 4.8 16.1 0.00 0.00 0.00 74 1009.5
20260506140104 20 260 1.6 12.9 0.00 0.00 0.00 75 1009.6
20260506135604 19 253 3.2 12.9 0.00 0.00 0.00 75 1009.7
20260506135105 19 243 4.8 14.5 0.00 0.00 0.00 76 1009.7
20260506134604 19 273 4.8 12.9 0.00 0.00 0.00 75 1009.6
20260506134104 19 234 4.8 12.9 0.00 0.00 0.00 76 1009.5
20260506133604 19 211 4.8 11.3 0.00 0.00 0.00 76 1009.4
20260506132605 19 242 8.0 14.5 0.00 0.00 0.00 75 1009.3
20260506131605 19 256 4.8 11.3 0.00 0.00 0.00 76 1009.5
20260506131104 19 240 4.8 24.1 0.00 0.00 0.00 76 1009.4
20260506130604 19 239 4.8 14.5 0.00 0.00 0.00 76 1009.1
20260506130104 19 271 8.0 14.5 0.00 0.00 0.00 76 1009.2
20260506125105 19 263 8.0 16.1 0.00 0.00 0.00 76 1009.1
20260506124604 19 260 4.8 20.9 0.00 0.00 0.00 76 1009.2
20260506124105 19 232 4.8 20.9 0.00 0.00 0.00 76 1009.3
20260506123605 19 275 6.4 16.1 0.00 0.00 0.00 76 1009.4
20260506123105 18 247 3.2 16.1 0.00 0.00 0.00 76 1009.4
20260506122604 18 282 8.0 14.5 0.00 0.00 0.00 76 1009.4
20260506122105 18 264 4.8 19.3 0.00 0.00 0.00 76 1009.4
20260506121604 18 234 4.8 12.9 0.00 0.00 0.00 76 1009.3
20260506121104 18 290 9.7 19.3 0.00 0.00 0.00 76 1009.4
20260506120605 18 252 9.7 19.3 0.00 0.00 0.00 76 1009.5
20260506115605 18 271 8.0 16.1 0.00 0.00 0.00 76 1009.6
20260506115105 18 276 3.2 24.1 0.00 0.00 0.00 77 1009.7
20260506114605 18 251 8.0 19.3 0.00 0.00 0.00 77 1009.7
20260506114105 18 272 3.2 8.0 0.00 0.00 0.00 77 1009.6
20260506113605 18 237 4.8 9.7 0.00 0.00 0.00 77 1009.4
20260506113105 18 263 3.2 20.9 0.00 0.00 0.00 78 1009.4
20260506112605 18 258 11.3 20.9 0.00 0.00 0.00 77 1009.5
20260506111604 18 278 3.2 12.9 0.00 0.00 0.00 78 1009.5
20260506111105 18 192 3.2 9.7 0.00 0.03 0.00 78 1009.3
20260506110604 18 240 8.0 22.5 0.00 0.03 0.00 78 1009.3
20260506110105 18 220 3.2 14.5 0.00 0.03 0.00 78 1009.2
20260506105604 18 243 4.8 19.3 0.00 0.05 0.00 78 1009.3
20260506104605 18 254 4.8 20.9 0.00 0.05 0.00 78 1009.3
20260506104104 18 275 4.8 19.3 0.00 0.05 0.00 77 1009.3
20260506103606 18 247 6.4 12.9 0.00 0.05 0.00 77 1009.2
20260506103105 18 263 4.8 14.5 0.00 0.05 0.00 77 1009.2
20260506102605 18 260 8.0 19.3 0.00 0.05 0.00 77 1009.2
20260506102104 18 232 6.4 16.1 0.00 0.05 0.00 77 1009.1
20260506101104 18 275 6.4 19.3 0.00 0.05 0.00 77 1009.1
20260506100604 18 222 8.0 20.9 0.00 0.05 0.00 77 1008.9
20260506100104 18 247 3.2 19.3 0.00 0.05 0.00 77 1009.0
20260506095106 18 263 4.8 11.3 0.00 0.05 0.00 77 1009.0
20260506093605 18 243 3.2 11.3 0.00 0.05 0.00 77 1009.2
20260506093104 18 268 3.2 12.9 0.00 0.05 0.00 77 1009.1
20260506092605 18 250 4.8 14.5 0.00 0.05 0.00 76 1009.1
20260506092104 18 242 3.2 12.9 0.00 0.05 0.00 76 1009.1
20260506091604 18 227 3.2 14.5 0.00 0.05 0.00 75 1009.0
20260506090605 18 224 1.6 4.8 0.00 0.05 0.00 74 1009.1
20260506090104 18 260 4.8 11.3 0.00 0.05 0.00 74 1009.1
20260506085604 18 216 1.6 8.0 0.00 0.05 0.00 73 1009.1
20260506084605 18 248 4.8 16.1 0.00 0.05 0.00 72 1009.2
20260506084104 18 278 1.6 12.9 0.00 0.05 0.00 71 1009.2
20260506083606 18 252 3.2 9.7 0.00 0.05 0.00 71 1009.3
20260506083105 18 249 3.2 11.3 0.00 0.05 0.00 71 1009.3
20260506082105 19 218 1.6 11.3 0.00 0.05 0.00 70 1009.4
20260506081104 19 250 3.2 4.8 0.00 0.05 0.00 69 1009.4
20260506080104 19 238 1.6 12.9 0.00 0.05 0.00 68 1009.4
20260506073104 19 268 4.8 11.3 0.00 0.05 0.00 67 1009.4
20260506072104 19 279 3.2 8.0 0.00 0.05 0.00 67 1009.3
20260506071604 19 236 3.2 9.7 0.00 0.05 0.00 67 1009.3
20260506071104 20 277 3.2 9.7 0.00 0.05 0.00 67 1009.4
20260506070604 20 247 3.2 12.9 0.00 0.05 0.00 66 1009.6
20260506070106 20 284 3.2 9.7 0.00 0.05 0.00 66 1009.6